Location: Newark
(34.9500°N, 139.9667°E)
Time: 14:16:32
(UTC+00:00)

Vanguard 1 Rocket - Pass Details

Date: 10 December 2019
Orbit: 650 x 4226 km, 34.3° (Epoch: 22 January)

Event Time Altitude Azimuth Distance (km) Brightness Sun altitude
Rises 12:01:36 0° 248° (WSW) 7,870 12.6 -55.0°
Reaches altitude 10° 12:07:38 10° 247° (WSW) 6,409 12.0 -56.3°
Enters shadow 12:19:00 40° 241° (WSW) 3,431 10.2 -58.5°
Maximum altitude 12:25:43 75° 166° (SSE) 2,108 - -59.9°
Drops below altitude 10° 12:34:35 10° 82° (E) 3,383 - -61.6°
Sets 12:36:47 0° 81° (E) 4,073 - -62.0°
